This is the latest recevied weather packets stored in our database for station/object AD8PA-13. If no packets are shown the sender has not sent any weather packets the latest 10 day(s).
| Time | Temp. | Humidity | Pressure | Rain* | Wind** | Luminosity | Snow |
|---|---|---|---|---|---|---|---|
| 1777542494 | 4.44° C | 95% | 1014.4 hPa | 0 mm | - | - | - |
| 1777541591 | 4.44° C | 95% | 1014.1 hPa | 0 mm | - | - | - |
| 1777540686 | 4.44° C | 95% | 1014.2 hPa | 0 mm | - | - | - |
| 1777539785 | 4.44° C | 94% | 1014.3 hPa | 0 mm | - | - | - |
| 1777538881 | 4.44° C | 93% | 1013.8 hPa | 1.27 mm | - | - | - |
| 1777537980 | 4.44° C | 93% | 1014 hPa | 0 mm | - | - | - |
| 1777537074 | 4.44° C | 93% | 1013.9 hPa | 0 mm | - | - | - |
| 1777536171 | 4.44° C | 92% | 1013.7 hPa | 0 mm | - | - | - |
| 1777535266 | 4.44° C | 91% | 1013.8 hPa | 0 mm | - | - | - |
| 1777534363 | 4.44° C | 92% | 1013.8 hPa | 0 mm | - | - | - |
| 1777533459 | 4.44° C | 92% | 1013.8 hPa | 0 mm | - | - | - |
| 1777532555 | 4.44° C | 92% | 1013.7 hPa | 0 mm | - | - | - |
| 1777531650 | 4.44° C | 92% | 1013.7 hPa | 0 mm | - | - | - |
| 1777530748 | 5° C | 92% | 1013.9 hPa | 0 mm | - | - | - |
| 1777529845 | 5° C | 93% | 1013.7 hPa | 0 mm | - | - | - |
| 1777528945 | 5° C | 93% | 1013.7 hPa | 0 mm | - | - | - |
| 1777528044 | 5° C | 92% | 1013.9 hPa | 0 mm | - | - | - |
| 1777527141 | 5° C | 90% | 1014.1 hPa | 0 mm | - | - | - |
| 1777526240 | 5° C | 92% | 1014.1 hPa | 1.78 mm | - | - | - |
| 1777525337 | 5.56° C | 95% | 1014.1 hPa | 0 mm | - | - | - |
| 1777524434 | 5.56° C | 95% | 1013.9 hPa | 0 mm | - | - | - |
| 1777523529 | 5.56° C | 94% | 1013.8 hPa | 1.78 mm | - | - | - |
| 1777522624 | 5.56° C | 94% | 1013.9 hPa | 1.27 mm | - | - | - |
| 1777521719 | 5.56° C | 93% | 1013.9 hPa | 1.27 mm | - | - | - |
| 1777520817 | 5.56° C | 92% | 1014 hPa | 1.78 mm | - | - | - |
* Rain latest hour (hover to see other rain measurements)
** Current wind speed in m/s (hover to see current wind gust speed)